Regional Weather Roundup
Issued by NWS Charleston, SC

Current Version | Previous Version | Graphics & Text | Print | Product List | Glossary On
Versions: 1 2 3 4 5 6 7 8 9 10 11 12 13 14 15 16 17 18 19 20 21 22 23 24 25 26 27 28 29 30 31 32 33 34 35 36 37 38 39 40 41 42 43 44 45 46 47 48 49 50
000 ASUS42 KCHS 311228 RWRCHS REGIONAL WEATHER ROUNDUP NATIONAL WEATHER SERVICE CHARLESTON SC 800 AM EDT TUE MAY 31 2016 NOTE: "FAIR" INDICATES FEW OR NO CLOUDS BELOW 12,000 FEET WITH NO SIGNIFICANT WEATHER AND/OR OBSTRUCTIONS TO VISIBILITY. NOT ALL STATIONS ARE QUALITY CONTROLLED. USE DATA WITH CAUTION... ESPECIALLY DEWPOINT OBSERVATIONS. SCZ027-030-031-034>040-042>050-311300- ...SOUTHEAST SOUTH CAROLINA... CITY SKY/WX TMP DP RH WIND PRES REMARKS N CHARLESTON PTSUNNY 73 70 90 NW7 29.92R 6HR MIN TEMP: 70; 6HR MAX TEMP: 73; WATERFRONT PRK N/A 72 71 97 VRB3 29.89R MOUNT PLEASANT CLOUDY 72 72 100 CALM 29.93R JOHNS ISLAND CLOUDY 75 72 88 NW7 29.93R PINOPOLIS N/A 73 72 94 N6 29.85R MONCKS CORNER CLOUDY 68 66 94 N5 29.93R FOG SUMMERVILLE CLOUDY 72 72 100 N5 29.94R BEAUFORT MCAS PTSUNNY 73 71 93 W3 29.93R 6HR MIN TEMP: 71; 6HR MAX TEMP: 73; BEAUFORT ARPT PTSUNNY 72 70 94 CALM 29.93R HILTON HEAD IS MOSUNNY 73 70 88 N6 29.94R WALTERBORO CLOUDY 72 72 100 N5 29.95R ALLENDALE CLOUDY 70 70 100 CALM 29.95R FOG ...SOUTHERN MIDLANDS AND PEE DEE... CITY SKY/WX TMP DP RH WIND PRES REMARKS GEORGETOWN CLOUDY 70 70 100 CALM 29.92R KINGSTREE CLOUDY 70 68 94 N3 29.93R FOG ORANGEBURG CLOUDY 72 69 90 N6 29.95R 6HR MIN TEMP: 68; 6HR MAX TEMP: 72; BARNWELL CLOUDY 72 72 100 NE7 29.96R AIKEN FOG 68 66 94 NE7 30.00R VSB 1/4 MANNING CLOUDY 70 70 100 N7 29.93R FOG COLUMBIA CLOUDY 72 69 90 NE5 29.95R FOG 6HR MIN TEMP: 71; 6HR MAX TEMP: 74; SUMTER CLOUDY 72 68 88 N7 29.93S 6HR MIN TEMP: 70; 6HR MAX TEMP: 72; FLORENCE CLOUDY 73 70 90 N7 29.94R 6HR MIN TEMP: 72; 6HR MAX TEMP: 73; MYRTLE BEACH CLOUDY 72 64 78 N9 29.91R N MYRTLE BEACH CLOUDY 72 70 93 N7 29.89R 6HR MIN TEMP: 70; 6HR MAX TEMP: 72; $$ GAZ063-065-086>088-099>101-113>116-118-119-134>141-150-311300- ...SOUTHEAST GEORGIA... CITY SKY/WX TMP DP RH WIND PRES REMARKS SAVANNAH ARPT MOSUNNY 73 70 90 CALM 29.93R 6HR MIN TEMP: 70; 6HR MAX TEMP: 73; HUNTER AAF MOSUNNY 74 73 98 NE1 29.91R 6HR MIN TEMP: 70; 6HR MAX TEMP: 74; 6HR PCP: TRACE; FORT STEWART SUNNY 72 68 87 CALM 29.91R 6HR MIN TEMP: 68; 6HR MAX TEMP: 74; STATESBORO SUNNY 74 72 94 CALM 29.95R SYLVANIA SUNNY 76 72 88 NE3 29.95R CLAXTON FAIR 74 72 93 CALM 29.94R ...CSRA...CENTRAL AND FAR SOUTHEAST GEORGIA... CITY SKY/WX TMP DP RH WIND PRES REMARKS THOMSON MOSUNNY 71 70 97 CALM 30.01R AUGUSTA-BUSH SUNNY 72 69 90 CALM 29.95R 6HR MIN TEMP: 65; 6HR MAX TEMP: 72; AUGUSTA-DANIEL SUNNY 73 67 81 N3 29.97R SWAINSBORO FAIR 77 68 73 CALM 29.96R VIDALIA SUNNY 73 68 83 CALM 29.95R EASTMAN FAIR 73 71 94 CALM 29.97R HAZLEHURST FAIR 76 69 79 CALM 29.94R ALMA PTSUNNY 73 68 84 CALM 29.93R 6HR MIN TEMP: 67; 6HR MAX TEMP: 73; WAYCROSS MOSUNNY 72 69 91 W3 29.94R JESUP FAIR 68 64 88 E3 29.94R BAXLEY FAIR 77 70 78 CALM 29.94R BRUNSWICK MOSUNNY 77 72 83 W7 29.94R SAINT SIMONS SUNNY 73 70 90 W9 29.92S 6HR MIN TEMP: 72; 6HR MAX TEMP: 75; $$ SCZ027-028-034-036>038-045-046-048>050-GAZ119-141-311300- ...LAKE AND SUPPLEMENTAL COASTAL OBSERVATIONS... STATION/POSITION TIME TEMP WIND PRES WAVE SWELL AIR SEA DIR/SP/G HT/PER HT/PER/DIR (UTC) (F) (DEG/KT/KT) (MB) (FT/S) (FT/S/D) WINYAH BAY 1100 71 360/ 7 1011.0R LAKE MURRAY 1100 68 20/ 1/ 3 1013.5R ACE BASIN NERRS 1100 71 340/ 1 1013.0R FORT PULASKI 1200 74 76 30/ 4/ 5 1013.8R SAPELO ISLAND 1200 74 240/ 5 1013.0S $$ ANZ835-935-AMZ111-154-330-350-352-354-370-450-454-472-311300- ...C-MAN AND BUOY OBSERVATIONS... STATION/POSITION TIME TEMP WIND PRES WAVE SWELL AIR SEA DIR/SP/G HT/PER HT/PER/DIR (UTC) (F) (DEG/KT/KT) (MB) (FT/S) (FT/S/D) BUOY 41004 1150 74 77 310/ 12/ 14 1012.0R 4/ 8 3/ 8 BUOY 41008 1150 76 77 270/ 8/ 10 1013.1R 3/ 9 2/ 70/ 9 FOLLY BEACH CMAN 1200 72 310/ 5/ 7 1013.3R CAPERS NEARSHORE 1208 72 76 310/ 8/ 12 1013.0R FRIPP NEARSHORE 1208 74 75 350/ 8/ 10 1013.0R STATION/POSITION TIME TEMP WIND PRES WAVE SWELL AIR SEA DIR/SP/G HT/PER HT/PER/DIR (UTC) (F) (DEG/KT/KT) (MB) (FT/S) (FT/S/D) 5E ST. MARYS GA 1101 78 N/A 3/ 8 FRYING PAN BUOY 1200 76 78 180/ 6/ 8 1011.6R BUOY 41025 1150 77 80 160/ 12/ 16 1013.2R 5/ 9 5/150/ 9 CAPE LOOKOUT NC 1200 75 350/ 2/ 2 1012.9R BUOY 41002 1150 76 76 160/ 12/ 14 1015.0R 4/ 7 3/ 90/ 7 BUOY 41010 1120 79 79 200/ 8/ 10 1014.0R ST AUGUSTINE FL 1200 75 78 260/ 10/ 12 1014.7R $$

USA.gov is the U.S. government's official web portal to all federal, state and local government web resources and services.